Location: Ravensburg
(47.7866°N, 9.6124°E)
Time: 09:49:55
(UTC+02:00)

YUBILEINY - Pass Details

Date: 16 March 2026
Orbit: 1477 x 1509 km, 82.5° (Epoch: 17 April)

Event Time Altitude Azimuth Distance (km) Brightness Sun altitude
Rises 01:08:07 0° 353° (N) 4,625 ? -43.3°
Reaches altitude 10° 01:12:36 10° 14° (NNE) 3,635 ? -43.1°
Maximum altitude 01:17:47 17° 51° (NE) 3,132 ? -42.9°
Drops below altitude 10° 01:22:54 10° 88° (E) 3,618 ? -42.6°
Sets 01:27:18 0° 108° (ESE) 4,592 ? -42.4°
